DW8219 Weather Reports


Display with metric or nautical units.
time (UTC)temp
F
wind
direction
speed
MPH
gust
MPH
rain 1hr
in
rain 24hr
in
rain mn
in
humidity
%
barometer
mb
20260901190404 79 263 0.0 0.0 0.00 0.29 0.28 86 1012.7
20260901185405 79 263 0.0 0.0 0.00 0.29 0.28 86 1012.7
20260901184404 79 263 0.0 0.0 0.00 0.29 0.28 85 1012.5
20260901183404 79 259 0.0 0.0 0.00 0.29 0.28 83 1012.6
20260901182904 79 259 0.0 0.0 0.00 0.29 0.28 86 1012.6
20260901182404 78 181 0.0 0.0 0.01 0.29 0.28 84 1012.7
20260901181404 80 232 0.0 0.0 0.02 0.29 0.28 88 1012.8
20260901180904 78 225 0.0 0.0 0.03 0.29 0.28 90 1012.8
20260901180405 78 225 0.0 0.0 0.03 0.29 0.28 90 1012.7
20260901175905 77 223 0.0 0.0 0.03 0.29 0.28 88 1012.7
20260901175404 78 236 0.0 0.0 0.03 0.29 0.28 91 1012.6
20260901174405 78 207 0.0 0.0 0.03 0.29 0.28 94 1012.6
20260901173905 76 207 0.0 0.0 0.03 0.29 0.28 93 1012.5
20260901173404 76 211 1.0 6.0 0.03 0.29 0.28 94 1012.4
20260901172905 75 205 1.0 8.0 0.03 0.29 0.28 95 1012.4
20260901172404 74 182 2.0 6.0 0.02 0.28 0.27 94 1012.6
20260901171905 74 181 1.0 5.0 0.02 0.28 0.27 94 1013.1
20260901170904 74 221 0.0 0.0 0.00 0.26 0.25 94 1013.5
20260901170405 74 221 0.0 0.0 0.00 0.26 0.25 94 1013.6
20260901165904 74 221 0.0 3.0 0.00 0.26 0.25 94 1013.6
20260901165405 74 227 1.0 5.0 0.00 0.26 0.25 94 1013.7
20260901164905 74 227 1.0 5.0 0.01 0.26 0.25 94 1013.6
20260901164405 74 228 2.0 7.0 0.01 0.26 0.25 94 1013.4
20260901163906 74 204 2.0 8.0 0.01 0.26 0.25 94 1013.4
20260901163404 74 205 5.0 12.0 0.01 0.26 0.25 94 1013.3
20260901162904 74 178 5.0 12.0 0.02 0.26 0.25 94 1013.1
20260901162405 73 155 3.0 8.0 0.03 0.26 0.25 94 1013.1
20260901161905 73 174 1.0 6.0 0.04 0.26 0.25 95 1013.2
20260901161404 73 165 2.0 6.0 0.05 0.26 0.25 94 1013.5
20260901160904 73 136 1.0 5.0 0.07 0.26 0.25 94 1013.7
20260901160405 73 185 0.0 1.0 0.08 0.26 0.25 94 1013.8
20260901155905 73 188 1.0 3.0 0.08 0.26 0.25 94 1014.0
20260901155405 72 191 1.0 5.0 0.09 0.26 0.25 94 1014.1
20260901154905 72 154 1.0 3.0 0.09 0.25 0.24 94 1014.1
20260901154405 72 237 0.0 0.0 0.09 0.25 0.24 94 1014.5
20260901153905 72 255 0.0 0.0 0.09 0.25 0.24 94 1014.7
20260901153405 72 256 0.0 0.0 0.09 0.25 0.24 94 1014.8
20260901152905 72 255 0.0 0.0 0.08 0.24 0.23 94 1014.8
20260901152404 72 255 0.0 0.0 0.07 0.23 0.22 94 1014.9
20260901151404 72 255 0.0 0.0 0.05 0.21 0.20 94 1014.6
20260901150904 72 255 0.0 0.0 0.03 0.19 0.18 93 1014.6
20260901150403 72 255 0.0 0.0 0.02 0.18 0.17 93 1014.7
20260901145904 72 255 0.0 0.0 0.02 0.18 0.17 93 1014.8
20260901145404 72 255 0.0 0.0 0.01 0.17 0.16 93 1014.8
20260901144904 73 255 0.0 0.0 0.00 0.16 0.15 93 1014.8
20260901144403 73 255 0.0 0.0 0.00 0.16 0.15 93 1014.8
20260901143904 73 255 0.0 0.0 0.00 0.16 0.15 93 1014.7
20260901143404 73 255 0.0 0.0 0.00 0.16 0.15 94 1014.7
20260901142904 73 255 0.0 0.0 0.00 0.16 0.15 93 1014.6
20260901141903 73 255 0.0 0.0 0.00 0.16 0.15 93 1014.5
20260901141404 73 255 0.0 0.0 0.00 0.16 0.15 93 1014.4
20260901140904 73 255 0.0 0.0 0.00 0.16 0.15 93 1014.4
20260901140405 73 255 0.0 0.0 0.00 0.16 0.15 94 1014.4
20260901135906 73 255 0.0 0.0 0.00 0.16 0.15 93 1014.3
20260901135404 73 255 0.0 0.0 0.00 0.16 0.15 94 1014.1
20260901134904 72 255 0.0 0.0 0.00 0.16 0.15 94 1014.1
20260901134404 72 255 0.0 0.0 0.00 0.16 0.15 94 1014.2
20260901133906 72 255 0.0 0.0 0.00 0.16 0.15 94 1014.3
20260901133404 72 255 0.0 0.0 0.00 0.16 0.15 94 1014.4
20260901132904 72 255 0.0 0.0 0.00 0.16 0.15 94 1014.4
20260901132404 72 255 0.0 0.0 0.00 0.16 0.15 94 1014.3
20260901131904 72 255 0.0 0.0 0.00 0.16 0.15 94 1014.4
20260901130905 71 258 0.0 0.0 0.00 0.16 0.15 94 1014.6
20260901130404 71 258 0.0 0.0 0.00 0.16 0.15 95 1014.5
20260901125904 71 258 0.0 3.0 0.00 0.16 0.15 95 1014.4
20260901125404 71 232 0.0 3.0 0.00 0.16 0.15 94 1014.2
20260901124904 71 227 0.0 2.0 0.00 0.16 0.15 94 1014.3
20260901124405 71 230 0.0 0.0 0.00 0.16 0.15 95 1014.4
20260901123904 71 230 1.0 3.0 0.01 0.16 0.15 94 1014.4
20260901123404 71 224 0.0 3.0 0.01 0.16 0.15 95 1014.3
20260901122904 71 178 1.0 3.0 0.02 0.16 0.15 95 1014.1
20260901122404 71 173 2.0 5.0 0.02 0.16 0.15 95 1014.3
20260901121904 71 178 1.0 5.0 0.02 0.16 0.15 95 1014.3
20260901121404 71 174 0.0 5.0 0.02 0.16 0.15 95 1014.1
20260901120404 71 211 0.0 0.0 0.02 0.16 0.15 95 1014.1
20260901115904 71 211 0.0 0.0 0.02 0.16 0.15 95 1014.3
20260901115404 70 233 0.0 0.0 0.02 0.16 0.15 95 1014.3
20260901114906 70 236 0.0 0.0 0.02 0.16 0.15 95 1014.4
20260901114404 70 236 0.0 0.0 0.02 0.16 0.15 95 1014.4
20260901113905 70 236 0.0 0.0 0.01 0.15 0.14 95 1014.8
20260901112904 70 236 0.0 2.0 0.00 0.14 0.13 95 1014.5
20260901112405 70 341 0.0 0.0 0.00 0.14 0.13 95 1014.5
20260901111905 70 340 0.0 0.0 0.00 0.14 0.13 95 1014.6
20260901111404 70 340 0.0 0.0 0.00 0.14 0.13 95 1014.7
20260901110904 70 340 0.0 0.0 0.00 0.14 0.13 95 1014.8
20260901110406 70 340 0.0 0.0 0.00 0.14 0.13 95 1014.7
20260901105905 70 340 0.0 0.0 0.00 0.14 0.13 95 1014.7
20260901104904 70 340 0.0 0.0 0.00 0.14 0.13 95 1014.5
20260901104404 70 340 0.0 0.0 0.00 0.14 0.13 95 1014.6
20260901103404 69 340 0.0 0.0 0.00 0.14 0.13 95 1014.6
20260901102906 69 340 0.0 0.0 0.00 0.14 0.13 95 1014.6
20260901102404 69 340 0.0 0.0 0.00 0.14 0.13 95 1014.5
20260901101906 69 26 0.0 0.0 0.00 0.14 0.13 95 1014.3
20260901101404 69 26 0.0 0.0 0.00 0.14 0.13 95 1014.2
20260901100905 69 26 0.0 0.0 0.00 0.14 0.13 95 1014.2
20260901100405 69 26 0.0 0.0 0.00 0.14 0.13 95 1014.3
20260901095905 69 26 0.0 0.0 0.00 0.14 0.13 95 1014.4
20260901095405 69 26 0.0 0.0 0.00 0.14 0.13 95 1014.4
20260901094904 69 26 0.0 0.0 0.00 0.14 0.13 95 1014.4
20260901094405 69 26 0.0 0.0 0.00 0.14 0.13 95 1014.3
20260901093906 69 26 0.0 0.0 0.00 0.14 0.13 95 1014.3
20260901093405 69 26 0.0 0.0 0.00 0.14 0.13 95 1014.3
20260901092905 69 26 0.0 0.0 0.00 0.14 0.13 95 1014.3
20260901092403 69 26 0.0 0.0 0.00 0.14 0.13 94 1014.4
20260901091905 69 26 0.0 0.0 0.00 0.14 0.13 95 1014.4
20260901091403 69 26 0.0 0.0 0.00 0.14 0.13 94 1014.4
20260901090904 69 26 0.0 0.0 0.00 0.14 0.13 94 1014.4
20260901085403 69 26 0.0 0.0 0.00 0.14 0.13 94 1014.7
20260901084903 69 24 0.0 0.0 0.01 0.14 0.13 94 1014.8
20260901084405 69 24 0.0 0.0 0.01 0.14 0.13 94 1014.8
20260901083903 69 24 0.0 0.0 0.01 0.14 0.13 94 1014.7
20260901082904 69 24 0.0 0.0 0.01 0.14 0.13 94 1014.7
20260901082405 70 24 0.0 0.0 0.01 0.14 0.13 94 1014.7
20260901081904 69 24 0.0 0.0 0.01 0.14 0.13 94 1014.7
20260901081404 69 24 0.0 0.0 0.01 0.14 0.13 94 1014.7
20260901080404 69 24 0.0 0.0 0.01 0.14 0.13 94 1014.8
20260901075905 69 24 0.0 0.0 0.01 0.14 0.13 94 1014.8
20260901075405 69 24 0.0 0.0 0.01 0.14 0.13 94 1014.9
20260901074904 69 24 0.0 0.0 0.00 0.13 0.12 94 1015.0
20260901073904 69 24 0.0 0.0 0.00 0.13 0.12 94 1015.0
20260901073404 69 24 0.0 0.0 0.00 0.13 0.12 94 1015.1
20260901072904 69 24 0.0 0.0 0.00 0.13 0.12 94 1014.9
20260901072405 69 24 0.0 0.0 0.00 0.13 0.12 93 1015.0
20260901071404 69 24 0.0 1.0 0.00 0.13 0.12 93 1015.3
20260901070904 69 317 0.0 1.0 0.00 0.13 0.12 93 1015.2
20260901070404 69 273 0.0 0.0 0.00 0.13 0.12 93 1015.2
20260901065904 69 273 0.0 0.0 0.00 0.13 0.12 93 1015.2
20260901065404 70 232 1.0 5.0 0.00 0.13 0.12 93 1015.1
20260901064904 70 205 0.0 0.0 0.00 0.13 0.12 93 1015.1
20260901064404 70 205 0.0 0.0 0.00 0.13 0.12 93 1015.1
20260901063404 70 198 0.0 0.0 0.00 0.13 0.12 92 1015.2
20260901062905 70 201 0.0 0.0 0.00 0.13 0.12 93 1015.3
20260901061904 70 190 0.0 0.0 0.00 0.13 0.12 92 1015.3
20260901061404 70 174 0.0 1.0 0.00 0.13 0.12 92 1015.3
20260901060904 70 185 0.0 0.0 0.01 0.13 0.12 92 1015.5
20260901060405 70 191 0.0 0.0 0.01 0.13 0.12 92 1015.5
20260901055906 69 191 0.0 0.0 0.02 0.13 0.12 92 1015.6
20260901055404 69 190 1.0 5.0 0.02 0.13 0.12 92 1015.5
20260901054905 69 192 0.0 3.0 0.02 0.13 0.12 92 1015.7
20260901054405 69 184 0.0 0.0 0.03 0.13 0.12 92 1015.8
20260901053904 69 184 0.0 3.0 0.05 0.13 0.12 92 1015.7
20260901052905 69 158 1.0 3.0 0.11 0.13 0.12 92 1015.7
20260901051405 70 174 1.0 3.0 0.12 0.13 0.12 92 1016.0
20260901050905 70 171 0.0 0.0 0.11 0.12 0.11 92 1016.1
20260901050404 70 171 0.0 0.0 0.11 0.12 0.11 91 1016.1
20260901045905 70 171 1.0 3.0 0.09 0.11 0.10 91 1016.0
20260901045404 70 169 1.0 3.0 0.09 0.11 0.10 91 1016.1
20260901044906 70 170 1.0 3.0 0.09 0.11 0.10 91 1016.0
20260901044405 70 174 0.0 0.0 0.08 0.10 0.09 90 1016.2
20260901043904 70 174 0.0 0.0 0.06 0.08 0.07 89 1016.2
20260901043405 70 174 0.0 0.0 0.02 0.04 0.03 89 1016.1
20260901042905 70 174 0.0 0.0 0.00 0.02 0.01 88 1016.1
20260901042405 71 178 0.0 2.0 0.00 0.02 0.01 88 1016.0
20260901041904 71 163 1.0 3.0 0.00 0.02 0.01 88 1016.0
20260901041405 71 164 0.0 3.0 0.00 0.01 0.00 88 1016.1
20260901040905 71 182 1.0 3.0 0.00 0.01 0.00 88 1016.1
20260901035905 71 170 1.0 3.0 0.00 0.01 0.01 87 1016.1
20260901035405 71 174 2.0 3.0 0.00 0.01 0.01 87 1016.2
20260901034905 71 185 1.0 9.0 0.00 0.01 0.01 87 1016.2
20260901034405 71 162 2.0 6.0 0.00 0.01 0.01 86 1016.2
20260901033905 71 191 2.0 3.0 0.00 0.01 0.01 86 1016.2
20260901033405 71 183 1.0 3.0 0.00 0.01 0.01 86 1016.3
20260901032905 71 171 1.0 3.0 0.00 0.01 0.01 86 1016.3
20260901032404 71 163 1.0 3.0 0.00 0.01 0.01 85 1016.4
20260901031903 71 186 0.0 3.0 0.00 0.01 0.01 85 1016.3
20260901031404 71 177 2.0 5.0 0.00 0.01 0.01 85 1016.4
20260901030404 71 177 2.0 8.0 0.00 0.01 0.01 85 1016.4
20260901025904 71 180 1.0 5.0 0.00 0.01 0.01 85 1016.5
20260901025404 71 193 1.0 3.0 0.00 0.01 0.01 84 1016.5
20260901024404 71 174 1.0 3.0 0.00 0.01 0.01 84 1016.7
20260901023905 71 189 2.0 3.0 0.00 0.01 0.01 84 1016.8
20260901022904 71 183 2.0 6.0 0.00 0.01 0.01 84 1016.9
20260901022404 71 203 1.0 3.0 0.00 0.01 0.01 84 1017.0
20260901021904 71 177 0.0 3.0 0.00 0.01 0.01 84 1016.9
20260901021405 71 177 1.0 5.0 0.00 0.01 0.01 84 1016.9
20260901020404 71 201 0.0 3.0 0.00 0.01 0.01 84 1016.9
20260901015904 71 197 0.0 3.0 0.00 0.01 0.01 84 1016.9
20260901015404 72 183 2.0 5.0 0.00 0.01 0.01 84 1016.9
20260901014404 72 195 2.0 6.0 0.00 0.02 0.01 84 1017.0
20260901013904 72 195 1.0 3.0 0.00 0.02 0.01 84 1017.0
20260901013405 72 195 0.0 2.0 0.01 0.03 0.01 84 1017.0
20260901012905 72 179 1.0 5.0 0.01 0.03 0.01 84 1017.0
20260901012405 72 183 1.0 3.0 0.01 0.03 0.01 84 1017.0
20260901011905 72 175 1.0 3.0 0.01 0.03 0.01 84 1016.9
20260901011404 72 191 1.0 3.0 0.01 0.03 0.01 85 1016.9
20260901010904 72 190 1.0 3.0 0.01 0.04 0.01 84 1016.9
20260901010404 72 193 0.0 2.0 0.01 0.04 0.01 84 1016.8
20260901004905 72 190 1.0 3.0 0.01 0.04 0.01 83 1016.7
20260901004404 72 197 1.0 3.0 0.01 0.04 0.01 82 1016.7
20260901003905 72 186 1.0 3.0 0.01 0.04 0.01 81 1016.7
20260901003405 73 200 0.0 0.0 0.00 0.03 0.00 79 1016.6
20260901002905 73 202 0.0 3.0 0.00 0.03 0.00 78 1016.6
20260901002405 73 182 1.0 2.0 0.00 0.03 0.00 76 1016.6
20260901001905 73 181 1.0 3.0 0.00 0.03 0.00 76 1016.6
20260901001404 73 194 0.0 3.0 0.00 0.03 0.00 75 1016.6
20260901000904 73 181 0.0 0.0 0.00 0.03 0.00 75 1016.5
20260831235904 73 198 1.0 3.0 0.00 0.03 0.00 75 1016.6
20260831235404 73 178 2.0 3.0 0.00 0.03 0.00 75 1016.7
20260831234904 73 182 0.0 2.0 0.00 0.03 0.00 75 1016.7
20260831234405 74 182 0.0 2.0 0.00 0.03 0.00 75 1016.7
20260831233405 74 186 1.0 3.0 0.00 0.03 0.00 74 1016.7
20260831232905 74 167 0.0 2.0 0.00 0.03 0.00 74 1016.8
20260831232406 74 174 0.0 3.0 0.00 0.03 0.00 74 1016.8
20260831231905 74 210 0.0 0.0 0.00 0.03 0.00 74 1016.8
20260831231404 74 167 0.0 1.0 0.00 0.03 0.00 74 1016.8
20260831230905 74 167 1.0 3.0 0.00 0.03 0.00 73 1016.9
20260831225905 74 165 1.0 3.0 0.00 0.03 0.00 73 1017.0
20260831225405 74 185 1.0 2.0 0.00 0.03 0.00 73 1017.0
20260831224405 74 191 0.0 2.0 0.00 0.03 0.00 73 1016.9
20260831223905 74 157 2.0 3.0 0.00 0.03 0.00 73 1016.9
20260831223405 74 183 1.0 3.0 0.00 0.03 0.00 73 1016.9
20260831222905 74 199 0.0 3.0 0.00 0.03 0.00 73 1017.0
20260831222405 74 178 1.0 5.0 0.00 0.03 0.00 73 1017.0
20260831221405 74 200 0.0 6.0 0.00 0.03 0.00 73 1016.9
20260831220905 74 192 2.0 5.0 0.00 0.03 0.00 73 1016.9
20260831215406 74 208 2.0 3.0 0.00 0.03 0.00 74 1017.1
20260831214905 74 186 1.0 3.0 0.00 0.03 0.00 73 1017.1
20260831214404 74 177 1.0 6.0 0.00 0.03 0.00 73 1017.1
20260831213905 74 156 1.0 3.0 0.00 0.03 0.00 73 1017.1
20260831213405 74 161 1.0 3.0 0.00 0.03 0.00 74 1017.1
20260831212906 74 175 1.0 3.0 0.00 0.03 0.00 73 1017.1
20260831211903 74 170 1.0 7.0 0.00 0.03 0.00 74 1017.0
20260831210404 74 163 0.0 1.0 0.00 0.03 0.00 74 1017.4
20260831205904 74 186 0.0 8.0 0.00 0.03 0.00 73 1017.4
20260831205405 74 185 1.0 3.0 0.00 0.03 0.00 73 1017.5
20260831204905 74 181 1.0 5.0 0.00 0.03 0.00 72 1017.4
20260831204403 75 163 2.0 8.0 0.00 0.03 0.00 73 1017.3
20260831203405 75 154 2.0 9.0 0.00 0.03 0.00 73 1017.2
20260831202904 75 146 3.0 6.0 0.00 0.03 0.00 72 1017.1
20260831202404 74 209 2.0 9.0 0.00 0.03 0.00 73 1017.2
20260831201904 74 180 4.0 9.0 0.00 0.03 0.00 72 1017.3
20260831201403 74 185 4.0 10.0 0.00 0.03 0.00 72 1017.6
20260831200903 74 184 2.0 10.0 0.00 0.03 0.00 73 1017.6
20260831200403 74 207 5.0 10.0 0.00 0.03 0.00 73 1017.7
20260831195903 74 180 4.0 12.0 0.00 0.03 0.00 73 1017.7
20260831195404 74 190 3.0 12.0 0.00 0.03 0.00 71 1017.8
20260831194905 74 175 6.0 12.0 0.00 0.03 0.00 72 1017.8
20260831193904 74 190 4.0 10.0 0.00 0.03 0.00 71 1017.8
20260831193404 75 176 6.0 12.0 0.00 0.03 0.00 69 1017.8
20260831192904 75 182 6.0 13.0 0.00 0.03 0.00 67 1017.8
20260831191904 76 175 3.0 10.0 0.00 0.03 0.00 66 1017.8
20260831191404 76 179 6.0 12.0 0.00 0.03 0.00 65 1017.8
20260831190904 77 193 5.0 12.0 0.00 0.03 0.00 64 1018.0